Location: Newark
(40.3500°N, 15.2333°E)
Time: 06:53:11
(UTC+00:00)

Altair - Pass Details

Date: 25 January 2020
Orbit: 1502 x 1682 km, 47.2° (Epoch: 17 February)

Event Time Altitude Azimuth Distance (km) Brightness Sun altitude
Rises 11:58:00 0° 292° (WNW) 4,936 10.1 29.6°
Reaches altitude 10° 12:01:13 10° 294° (WNW) 3,948 9.6 29.5°
Maximum altitude 12:11:24 71° 19° (NNE) 1,751 8.0 29.0°
Drops below altitude 10° 12:21:20 10° 103° (ESE) 3,864 9.6 28.4°
Sets 12:24:27 0° 105° (ESE) 4,827 10.1 28.2°
